Погода в Инверкаргилле

Новая Зеландия     46°24′46″S   168°21′07″E
темп.,
°C
ветер,
м/с
пор.,
м/с
влажн.,
%
обл.,
%
осадки,
мм/ч
давл.,
гПа
погр.,
м
12 августа, пт
пт1200:00+2ссв23878 0.0 1024132
03:00+3ссз23849 0.0 1023200
06:00+3с4489100 0.0 1024178
09:00+4ссз4582100 0.1 1024209
12:00+7зсз4672100 0.1 1024404
15:00+9зюз5762100 0.0 1023976
18:00+9зюз5764100 0.1 10241189
21:00+9з6768100 0.1 1024809
13 августа, сб
сб1300:00+9з6769100 0.2 1024606
03:00+9зсз797284 0.0 1024886
06:00+8з588290 0.3 1025553
09:00+9зюз4674100 0.4 1026824
12:00+9з786870 0.4 10271130
15:00+9з78661 0.0 1025877
18:00+9зюз78672 0.0 1026736
21:00+9з68660 0.0 1026635
14 августа, вс
вс1400:00+8зсз79722 0.0 1025600
03:00+9з811720 0.0 1025829
06:00+9зсз91278100 0.0 1025947
09:00+7зсз71181100 0.0 1025634
12:00+9зсз71264100 0.0 1023762
15:00+10з6963100 0.0 1022754
18:00+9з4876100 0.0 1022533
21:00+7ссз4679100 0.1 1022278
15 августа, пн
пн1500:00+6с3482100 0.1 1023110
03:00+5ссв4588100 0.0 1023133
06:00+5ссв4585100 0.0 1022127
09:00+5св4681100 0.0 1022150
12:00+9св4864100 0.0 1021357
15:00+10всв3664100 0.0 1018430
18:00+9всв4872100 0.0 1016345
21:00+7всв4976100 0.0 1014256
16 августа, вт
вт1600:00+7св3576100 0.0 1012194
03:00+6всв3477100 0.0 1010125
06:00+7с378555 0.1 1010197
09:00+7с468885 0.0 1010158
12:00+11с3577100 0.0 1009198
15:00+14ссз2469100 0.0 1009288
18:00+12с357592 0.0 100954
21:00+11с51077100 0.0 1010172